Flag for U.S.A. Weather past 2 weeks in Newport News, Virginia, U.S.A.

Now
79 °F

Overcast.


Feels Like: 80 °F
Forecast: 67 / 76 °F
Wind: 10 mph from East

Location: Newport News / Williamsburg International Airport

Current Time: Sep 17, 2014 at 12:46:32 PM

Latest Report: Sep 17, 2014 at 11:54 AM


Visibility: 10 mi

Pressure: 30.01 "Hg

Humidity: 54%

Dew point: 61 °F

Location of Newport NewsLocation

Historic Weather in Newport News — Graph

°F

Newport News temperature yesterday

Maximum temperature yesterday: 84 °F (at 1:54 PM)
Minimum temperature yesterday: 69 °F (at 11:54 PM)
Average temperature yesterday: 75 °F

Past Weeks' High & Low Weather Summary

 TemperatureHumidityPressure
High99 °F (Sep 2, 2:54 PM)88% (Sep 4, 12:54 AM)30.28 "Hg (Sep 4, 12:54 AM)
Low64 °F (Sep 14, 6:54 AM)36% (Sep 2, 4:54 PM)29.89 "Hg (Sep 2, 2:54 PM)
Average78 °F71%30.07 "Hg
* Reported Sep 2 11:54 AM — Sep 17 11:54 AM, Newport News, Weather by CustomWeather, © 2014

Note: Actual official high and low records may vary slightly from our data, if they occured in-between our weather recording intervals... More about our weather records

Advertising

Newport News weather history for previous 24 hours

 ConditionsComfort  
Time TempWeatherWind HumidityBarometerVisibility
11:54 AM
Sep 17
79 °FOvercast.10 mph54%30.01 "Hg10 mi
10:54 AM76 °FPartly sunny.12 mph60%30.02 "Hg10 mi
9:54 AM75 °FOvercast.8 mph62%30.02 "Hg10 mi
8:54 AM72 °FMostly cloudy.6 mph76%30.01 "Hg10 mi
7:54 AM70 °FOvercast.6 mph79%30.01 "Hg10 mi
6:54 AM68 °FMostly cloudy.5 mph82%30.00 "Hg9 mi
5:54 AM70 °FOvercast.No wind76%29.99 "Hg10 mi
4:54 AM69 °FMostly cloudy.No wind81%29.99 "Hg10 mi
3:54 AM70 °FMostly cloudy.No wind79%29.99 "Hg10 mi
2:54 AM69 °FMostly cloudy.No wind81%29.99 "Hg10 mi
1:54 AM67 °FPartly cloudy.3 mph85%29.99 "Hg10 mi
12:54 AM69 °FMostly cloudy.5 mph81%30.00 "Hg10 mi
11:54 PM
Sep 16
69 °FMostly cloudy.5 mph81%30.00 "Hg10 mi
10:54 PM70 °FLight rain. Overcast.5 mph79%30.01 "Hg5 mi
9:54 PM72 °FLight rain. Mostly cloudy.5 mph81%29.99 "Hg10 mi
8:54 PM73 °FLight rain. Mostly cloudy.7 mph71%29.98 "Hg10 mi
7:54 PM74 °FMostly cloudy.7 mph69%29.97 "Hg10 mi
6:54 PM76 °FMostly cloudy.6 mph67%29.96 "Hg10 mi
5:54 PM78 °FPartly sunny.9 mph62%29.96 "Hg10 mi
4:54 PM82 °FBroken clouds.8 mph56%29.96 "Hg10 mi
3:54 PM83 °FBroken clouds.No wind51%29.96 "Hg10 mi
2:54 PM84 °FMore clouds than sun.3 mph48%29.97 "Hg10 mi
1:54 PM84 °FPassing clouds.3 mph48%29.98 "Hg10 mi
12:54 PM81 °FMostly cloudy.7 mph53%30.00 "Hg10 mi
Weather by CustomWeather, © 2014

See weather overviewHow to use our weather pages